Portada
METAR-TAF:

METAR-TAF

Aeroports :

Corinth, Mississipí, Estats Units d'Amèrica

latitud: 34-54-54N, longitud: 088-36-13W, altitud: 130 m

Observació

L'informe es va fer fa 15 minuts, a les 01:35 UTC
Vent calma
Temperatura 28°C
Humitat 79%
Pressió 1014 hPa
Visibilitat: 16.1 km
Cel clar

METAR: KCRX 250135Z AUTO 00000KT 10SM CLR 28/24 A2993 RMK AO2

Hora: 20:50 (01:50 UTC)


TAF: manca

Observacions i pronòstics meteorològics de més de 4000 aeroports (METAR i TAF).

Les estacions disponibles són els punts grocs i vermells al mapa.

Posi el ratolí al punt desitjat per veure el nom de l'estació.

Feu clic per veure les observacions i els pronòstics meteorològics.

Per canviar el mapa: feu clic els botons verds amb una creu de color negre per apropar; al botó verd amb un guió per allunyar la imatge; o en les fletxes verdes per a mapes adjacents.


METAR-TAF: